Orbital Elements at Epoch 2459000.5 (2020-May-31.0) TDB
Reference: JPL 26 (heliocentric ecliptic J2000)
Element | Value | Uncertainty (1-sigma) | Units |
e | .3054376104779881 | 3.3303e-08 | |
a | 2.751590316527728 | 1.3745e-08 | au |
q | 1.911151145233128 | 8.9848e-08 | au |
i | 15.15301933067032 | 4.8897e-06 | deg |
node | 74.05627798493745 | 1.6134e-05 | deg |
peri | 235.8767830924092 | 1.7981e-05 | deg |
M | 107.8532739481884 | 9.0589e-06 | deg |
tp | 2458501.035164288549 (2019-Jan-17.53516429) | 4.0153e-05 | TDB |
period | 1667.147730188514 4.56 | 1.2492e-05 3.42e-08 | d yr |
n | .2159376721577594 | 1.618e-09 | deg/d |
Q | 3.592029487822328 | 1.7943e-08 | au |
|
| | Orbit Determination Parameters
Additional Information
|